Weather History for KFYG - March, 2014

Change the Weather History Date:

Friday, March 21, 2014

  Actual Average (KSTL) Record (KSTL)
Temperature  
Mean Temperature 56 °F 48 °F  
Max Temperature 75 °F 58 °F 90 °F (1907)
Min Temperature 37 °F 38 °F 8 °F (1876)
Degree Days  
Heating Degree Days 9 17  
Month to date heating degree days 435  
Since 1 July heating degree days 4033  
Cooling Degree Days 0 0  
Month to date cooling degree days 0  
Year to date cooling degree days 0  
Growing Degree Days 6 (Base 50)    
Moisture  
Dew Point 31 °F    
Average Humidity 41    
Maximum Humidity 81    
Minimum Humidity 18    
Precipitation  
Precipitation 0.00 in 0.12 in 1.77 in (1948)
Month to date precipitation 2.10  
Year to date precipitation 6.74  
Snow  
Snow 0.00 in 0.00 in 1.20 in (2006)
Month to date snowfall 1.9  
Since 1 July snowfall 16.9  
Snow Depth -    
Sea Level Pressure  
Sea Level Pressure 29.86 in    
Wind  
Wind Speed 7 mph (SSW)    
Max Wind Speed 23 mph    
Max Gust Speed 29 mph    
Visibility 10 miles    
Events      
T = Trace of Precipitation, MM = Missing Value Source: NWS Daily Summary

Daily Weather History Graph

Daily Weather History Graph

Search for Another Location

Airport or City:

Trip Planner

Search our weather history database for the weather conditions in past years. The results will help you decide how hot, cold, wet, or windy it might be!

Date:

Astronomy

Mar. 21, 2014 Rise Set
Actual Time 7:05 AM CDT 7:16 PM CDT
Civil Twilight 6:39 AM CDT 7:43 PM CDT
Nautical Twilight 6:08 AM CDT 8:14 PM CDT
Astronomical Twilight 5:36 AM CDT 8:46 PM CDT
Moon No Moon Rise 10:01 AM CDT (3/21)
Length of Visible Light 13h 04m
Length of Day
12h 11m
Waning Gibbous, 75% of the Moon is Illuminated
Mar 21
Waning Gibbous
Mar 23
Last Quarter
Mar 30
New
Apr 7
First Quarter
Apr 15
Full

Hourly Weather History & Observations

Time (CDT) Temp. Windchill Dew Point Humidity Pressure Visibility Wind Dir Wind Speed Gust Speed Precip Events Conditions
12:15 AM 53.6 °F - 28.4 °F 38% 29.92 in 10.0 mi SE 5.8 mph - N/A   Mostly Cloudy
12:35 AM 53.6 °F - 30.2 °F 41% 29.92 in 10.0 mi SE 6.9 mph - N/A   Overcast
12:55 AM 53.6 °F - 30.2 °F 41% 29.92 in 10.0 mi SE 5.8 mph - N/A   Mostly Cloudy
1:15 AM 51.8 °F - 30.2 °F 44% 29.92 in 10.0 mi SE 5.8 mph - N/A   Mostly Cloudy
1:35 AM 51.8 °F - 30.2 °F 44% 29.92 in 10.0 mi Calm Calm - N/A   Scattered Clouds
1:55 AM 51.8 °F - 30.2 °F 44% 29.92 in 10.0 mi ESE 3.5 mph - N/A   Mostly Cloudy
2:15 AM 50.0 °F - 30.2 °F 47% 29.92 in 10.0 mi ESE 3.5 mph - N/A   Mostly Cloudy
2:35 AM 50.0 °F - 28.4 °F 43% 29.91 in 10.0 mi ESE 4.6 mph - N/A   Scattered Clouds
2:55 AM 48.2 °F - 30.2 °F 50% 29.91 in 10.0 mi SE 3.5 mph - N/A   Scattered Clouds
3:15 AM 50.0 °F - 28.4 °F 43% 29.91 in 10.0 mi SSE 3.5 mph - N/A   Scattered Clouds
3:35 AM 46.4 °F 45.2 °F 28.4 °F 50% 29.90 in 10.0 mi SE 3.5 mph - N/A   Scattered Clouds
3:55 AM 48.2 °F - 28.4 °F 46% 29.90 in 10.0 mi SSE 3.5 mph - N/A   Scattered Clouds
4:15 AM 44.6 °F - 28.4 °F 53% 29.90 in 10.0 mi Calm Calm - N/A   Mostly Cloudy
4:35 AM 44.6 °F - 28.4 °F 53% 29.90 in 10.0 mi Calm Calm - N/A   Overcast
4:55 AM 42.8 °F - 28.4 °F 57% 29.90 in 10.0 mi Calm Calm - N/A   Overcast
5:15 AM 42.8 °F - 30.2 °F 61% 29.89 in 10.0 mi Calm Calm - N/A   Overcast
5:35 AM 41.0 °F - 30.2 °F 65% 29.90 in 10.0 mi Calm Calm - N/A   Overcast
5:55 AM 44.6 °F - 28.4 °F 53% 29.90 in 10.0 mi Calm Calm - N/A   Overcast
6:15 AM 41.0 °F - 30.2 °F 65% 29.90 in 10.0 mi Calm Calm - N/A   Mostly Cloudy
6:35 AM 39.2 °F - 32.0 °F 75% 29.90 in 10.0 mi Calm Calm - N/A   Mostly Cloudy
6:55 AM 39.2 °F - 32.0 °F 75% 29.90 in 10.0 mi Calm Calm - N/A   Mostly Cloudy
7:15 AM 37.4 °F - 32.0 °F 81% 29.90 in 10.0 mi Calm Calm - N/A   Clear
7:35 AM 37.4 °F - 32.0 °F 81% 29.91 in 10.0 mi Calm Calm - N/A   Clear
7:55 AM 37.4 °F - 32.0 °F 81% 29.91 in 10.0 mi Calm Calm - N/A   Clear
8:15 AM 39.2 °F - 32.0 °F 75% 29.90 in 10.0 mi Calm Calm - N/A   Clear
8:35 AM 41.0 °F - 33.8 °F 76% 29.90 in 10.0 mi Calm Calm - N/A   Clear
8:55 AM 44.6 °F - 37.4 °F 76% 29.90 in 10.0 mi Calm Calm - N/A   Clear
9:15 AM 50.0 °F - 35.6 °F 58% 29.90 in 10.0 mi SE 4.6 mph - N/A   Clear
9:35 AM 55.4 °F - 32.0 °F 41% 29.90 in 10.0 mi SSE 5.8 mph - N/A   Clear
9:55 AM 55.4 °F - 32.0 °F 41% 29.90 in 10.0 mi SE 4.6 mph - N/A   Clear
10:15 AM 59.0 °F - 32.0 °F 36% 29.89 in 10.0 mi South 6.9 mph - N/A   Clear
10:35 AM 62.6 °F - 30.2 °F 30% 29.88 in 10.0 mi SSW 6.9 mph - N/A   Clear
10:55 AM 64.4 °F - 32.0 °F 30% 29.88 in 10.0 mi South 11.5 mph - N/A   Clear
11:15 AM 66.2 °F - 30.2 °F 26% 29.87 in 10.0 mi SSW 9.2 mph - N/A   Clear
11:35 AM 66.2 °F - 32.0 °F 28% 29.86 in 10.0 mi SSW 6.9 mph - N/A   Clear
11:55 AM 69.8 °F - 30.2 °F 23% 29.86 in 10.0 mi SW 16.1 mph 19.6 mph N/A   Clear
12:15 PM 69.8 °F - 30.2 °F 23% 29.85 in 10.0 mi SSW 15.0 mph 20.7 mph N/A   Clear
12:35 PM 71.6 °F - 28.4 °F 20% 29.84 in 10.0 mi South 13.8 mph - N/A   Clear
12:55 PM 71.6 °F - 30.2 °F 22% 29.82 in 10.0 mi South 17.3 mph 24.2 mph N/A   Clear
1:15 PM 71.6 °F - 28.4 °F 20% 29.82 in 10.0 mi SSW 18.4 mph 25.3 mph N/A   Clear
1:35 PM 71.6 °F - 26.6 °F 19% 29.80 in 10.0 mi SSW 18.4 mph 23.0 mph N/A   Clear
1:55 PM 73.4 °F - 26.6 °F 18% 29.79 in 10.0 mi SSW 16.1 mph 21.9 mph N/A   Clear
2:15 PM 73.4 °F - 26.6 °F 18% 29.78 in 10.0 mi South 16.1 mph 21.9 mph N/A   Clear
2:35 PM 73.4 °F - 26.6 °F 18% 29.77 in 10.0 mi SW 18.4 mph 24.2 mph N/A   Clear
2:55 PM 73.4 °F - 26.6 °F 18% 29.75 in 10.0 mi SSW 20.7 mph 24.2 mph N/A   Clear
3:15 PM 73.4 °F - 28.4 °F 19% 29.74 in 10.0 mi South 17.3 mph 25.3 mph N/A   Clear
3:35 PM 75.2 °F - 28.4 °F 18% 29.75 in 10.0 mi SW 20.7 mph 26.5 mph N/A   Clear
3:55 PM 75.2 °F - 28.4 °F 18% 29.74 in 10.0 mi SSW 17.3 mph 25.3 mph N/A   Clear
4:35 PM 75.2 °F - 28.4 °F 18% 29.74 in 10.0 mi SSW 15.0 mph 26.5 mph N/A   Clear
4:55 PM 75.2 °F - 28.4 °F 18% 29.73 in 10.0 mi WSW 19.6 mph 25.3 mph N/A   Clear
5:15 PM 75.2 °F - 32.0 °F 21% 29.74 in 10.0 mi SW 23.0 mph 28.8 mph N/A   Partly Cloudy
5:35 PM 73.4 °F - 32.0 °F 22% 29.74 in 10.0 mi SW 16.1 mph 28.8 mph N/A   Scattered Clouds
5:55 PM 73.4 °F - 32.0 °F 22% 29.74 in 10.0 mi SW 23.0 mph 26.5 mph N/A   Mostly Cloudy
6:15 PM 71.6 °F - 32.0 °F 23% 29.75 in 10.0 mi SW 10.4 mph - N/A   Overcast
6:35 PM 71.6 °F - 33.8 °F 25% 29.77 in 10.0 mi NNW 13.8 mph 18.4 mph N/A   Mostly Cloudy
7:15 PM 64.4 °F - 37.4 °F 37% 29.80 in 10.0 mi NNW 11.5 mph - N/A   Mostly Cloudy
7:35 PM 64.4 °F - 37.4 °F 37% 29.81 in 10.0 mi NNW 16.1 mph - N/A   Overcast
8:15 PM 62.6 °F - 35.6 °F 37% 29.85 in 10.0 mi NW 12.7 mph - N/A   Overcast
8:35 PM 60.8 °F - 35.6 °F 39% 29.87 in 10.0 mi NW 16.1 mph 19.6 mph N/A   Overcast
8:55 PM 60.8 °F - 35.6 °F 39% 29.89 in 10.0 mi NW 11.5 mph - N/A   Overcast
9:15 PM 59.0 °F - 35.6 °F 42% 29.90 in 10.0 mi NW 13.8 mph - N/A   Overcast
9:35 PM 59.0 °F - 35.6 °F 42% 29.91 in 10.0 mi NNW 12.7 mph - N/A   Overcast
10:15 PM 57.2 °F - 33.8 °F 41% 29.93 in 10.0 mi NW 6.9 mph - N/A   Overcast
10:55 PM 55.4 °F - 33.8 °F 44% 29.96 in 10.0 mi NW 8.1 mph - N/A   Overcast
11:15 PM 55.4 °F - 32.0 °F 41% 29.97 in 10.0 mi NNW 21.9 mph 26.5 mph N/A   Overcast
11:35 PM 55.4 °F - 32.0 °F 41% 29.98 in 10.0 mi NNW 15.0 mph 24.2 mph N/A   Overcast
11:55 PM 53.6 °F - 32.0 °F 44% 30.00 in 10.0 mi NNW 15.0 mph 21.9 mph N/A   Mostly Cloudy